Vorticity
18 4 -1 17 1 24 34 21 22 1 20 19 1 -3 37 34 -19 -27 -4 19 10 10 13 19 14 15 37 16 21 21 36 23 9 11 14 13 5 6 6 15 9 14 15 10
41 21 17 7 17 12 25 39 20 12 6 6 -5 -11 -48 18 33 24 -16 17 19 14 18 14 25 9 12 12 9 11 22 23 17 12 11 13 13 3 5 14 8 9 4 8
41 42 23 14 13 13 10 31 23 14 19 30 19 4 -5 45 -0 1 -26 -22 4 -1 -1 20 14 8 19 10 12 7 8 11 14 17 12 12 11 12 19 11 9 13 7 13
7 35 26 20 16 20 -1 29 40 16 -9 5 11 -14 32 45 -6 5 46 -1 -39 12 -3 18 16 22 29 18 20 20 13 5 7 3 11 18 7 10 18 12 13 4 15 13
-1 -1 14 23 19 12 -1 -10 50 24 16 9 18 17 42 34 42 48 -18 -3 6 18 -6 -19 8 28 -4 12 13 7 12 8 15 15 12 3 23 13 9 15 12 6 9 3
7 11 19 14 8 8 4 2 17 32 36 15 28 -5 -17 27 5 10 16 34 15 -0 13 -11 3 -23 -9 2 2 3 6 5 29 10 22 -0 -9 14 25 15 5 15 9 14
35 8 3 15 14 16 25 9 19 46 33 39 -8 24 43 23 -18 -31 -35 -17 -31 -10 -19 14 17 26 20 22 8 -13 -7 8 26 1 -0 0 -13 -11 14 13 8 3 6 -3
19 14 2 9 -1 -0 -1 32 22 4 39 47 16 -18 -18 5 13 21 35 32 20 34 8 -22 11 -4 12 36 23 12 9 13 26 1 15 12 1 17 4 2 12 7 4 -14
28 -1 8 -2 21 6 1 18 25 22 22 31 20 47 46 -16 -46 6 13 20 -16 26 47 21 -34 -19 7 -9 -13 21 29 27 27 12 -18 20 25 -2 -6 -5 26 -20 -2 11
27 -11 12 24 10 6 2 1 23 22 19 37 54 -22 41 58 8 -29 -27 47 22 9 -3 -11 18 -13 -15 -21 12 -12 27 -6 -6 3 -8 8 13 4 -15 3 -10 -12 17 29
29 7 31 2 11 19 6 10 20 24 16 29 52 -28 -2 31 33 30 18 17 31 30 41 11 20 35 -3 26 15 -33 5 3 28 18 18 15 11 -6 -36 -7 12 25 35 -7
23 9 5 1 14 22 1 12 21 27 15 40 58 -35 16 -4 -6 39 -28 -2 -1 -1 27 17 40 33 20 -29 -11 53 -13 4 32 38 4 -11 -4 6 19 8 26 37 -16 -1
19 20 4 18 19 9 16 13 19 35 -28 53 15 25 19 -21 -20 -12 19 25 23 -15 39 11 3 9 23 28 36 -56 -73 -7 -14 -44 -16 -13 -7 20 11 35 15 7 -12 3
15 26 37 25 28 14 17 29 34 31 -19 -10 74 29 26 -13 10 -15 -5 24 -21 14 30 -7 26 46 35 21 37 53 38 -11 -10 -14 -4 4 5 16 13 19 -22 2 14 10
19 37 13 24 37 31 34 24 21 39 -18 46 38 -0 50 29 6 33 -16 -3 5 -18 8 29 -16 -11 -16 2 1 21 3 -13 0 21 31 46 12 26 -21 -16 8 7 14 10
12 14 21 12 2 5 23 35 3 -14 45 -16 -20 48 43 44 -1 45 -35 8 -43 8 11 -17 47 -8 25 33 24 8 29 33 -1 8 18 -5 12 8 -13 14 13 16 12 14
8 9 11 9 12 12 10 -2 -1 8 50 7 42 -13 52 65 42 23 25 4 14 -22 -34 -4 -6 1 -2 -9 -28 -21 -18 2 27 12 18 25 25 13 -0 4 8 14 16 13
23 6 12 21 10 11 14 -7 21 22 40 -24 -20 -2 5 6 73 52 36 25 -9 11 49 31 9 -2 -17 -10 5 13 6 -8 -28 -1 -7 -7 13 9 -2 -5 4 22 19 20
23 16 10 2 11 5 2 -5 12 15 36 -24 -7 2 6 8 6 23 52 32 54 44 39 19 3 32 37 36 21 27 17 9 13 11 11 15 6 13 23 23 22 17 16 -8
-14 27 19 5 12 34 31 17 3 3 26 5 -12 26 7 -10 12 -1 21 -1 -3 5 18 31 5 19 23 21 19 11 8 8 14 7 -3 6 1 19 21 20 7 10 5 -1
20 15 -8 -6 6 8 11 14 11 10 12 5 -22 36 -2 -1 -6 7 20 8 15 4 5 13 9 7 12 14 13 11 12 17 22 24 13 29 16 10 5 -0 -2 1 5 10
15 21 11 -3 11 7 6 10 12 31 7 -3 -2 1 -2 20 8 14 2 12 10 1 5 21 12 13 6 11 18 16 20 19 18 16 12 10 8 7 8 12 11 11 15 13
11 10 15 17 34 14 5 6 16 16 8 -5 -7 2 19 17 19 14 4 4 8 11 7 8 15 15 10 12 10 5 3 3 0 0 1 2 5 8 13 15 15 9 19 17
12 11 11 12 19 19 14 11 11 7 15 22 31 26 20 19 10 12 10 9 10 16 15 2 4 10 7 6 8 13 10 10 10 10 13 16 17 15 13 17 16 19 19 17
15 17 17 15 10 14 17 21 16 20 15 13 11 8 10 8 11 10 14 17 9 7 16 15 9 7 9 9 10 9 9 13 17 18 18 15 15 15 16 21 20 17 17 14
8 10 11 16 20 22 20 15 19 22 21 28 19 16 17 15 14 11 16 13 15 17 11 17 15 11 12 16 16 15 17 17 17 18 19 19 20 19 17 15 18 19 16 10
5 7 10 7 9 13 13 17 18 14 16 6 22 21 13 18 14 13 12 19 22 19 14 13 17 17 15 16 14 13 14 18 21 19 16 15 14 18 17 16 19 14 9 3
Height
5385 5394 5402 5407 5414 5420 5423 5439 5454 5480 5483 5487 5497 5519 5533 5554 5567 5575 5585 5597 5607 5616 5623 5630 5639 5652 5662 5667 5678 5685 5696 5697 5699 5708 5715 5715 5717 5724 5728 5723 5729 5738 5741 5743
5367 5377 5387 5397 5402 5408 5419 5428 5449 5458 5465 5469 5480 5505 5528 5538 5551 5563 5576 5590 5597 5607 5615 5621 5629 5641 5652 5656 5665 5672 5679 5675 5684 5689 5696 5698 5698 5705 5713 5716 5723 5726 5728 5731
5356 5363 5374 5384 5392 5400 5411 5417 5424 5435 5446 5461 5477 5493 5513 5525 5540 5552 5567 5585 5590 5600 5607 5613 5621 5630 5639 5645 5654 5662 5664 5668 5675 5679 5686 5689 5692 5697 5703 5708 5711 5716 5718 5724
5354 5360 5367 5376 5383 5391 5400 5401 5409 5427 5435 5449 5468 5487 5498 5514 5524 5539 5554 5567 5577 5591 5601 5606 5612 5622 5628 5636 5644 5648 5651 5656 5663 5670 5674 5677 5682 5688 5691 5694 5703 5703 5716 5716
5355 5359 5362 5368 5376 5382 5388 5394 5404 5413 5430 5447 5456 5471 5484 5500 5511 5528 5540 5558 5574 5586 5592 5603 5609 5614 5619 5627 5632 5635 5641 5647 5653 5658 5665 5667 5670 5677 5681 5684 5690 5695 5701 5708
5348 5352 5357 5362 5368 5374 5385 5393 5398 5404 5421 5436 5449 5461 5480 5492 5506 5519 5533 5557 5565 5574 5592 5599 5602 5601 5610 5618 5622 5629 5635 5639 5644 5648 5656 5655 5660 5667 5668 5674 5680 5687 5690 5701
5335 5344 5351 5357 5364 5374 5381 5386 5391 5395 5405 5420 5436 5453 5467 5483 5495 5512 5527 5540 5548 5572 5578 5584 5590 5592 5596 5605 5611 5616 5622 5629 5634 5637 5641 5642 5656 5655 5658 5663 5669 5675 5681 5688
5327 5337 5346 5354 5362 5368 5372 5376 5381 5389 5397 5411 5429 5444 5457 5471 5486 5496 5510 5528 5547 5556 5564 5570 5582 5575 5584 5588 5599 5605 5610 5616 5620 5622 5626 5632 5645 5644 5648 5653 5662 5668 5670 5677
5328 5335 5342 5350 5356 5362 5367 5373 5376 5381 5390 5398 5427 5437 5447 5459 5472 5489 5501 5521 5531 5538 5544 5555 5557 5566 5575 5580 5585 5595 5602 5603 5610 5612 5616 5620 5643 5637 5640 5638 5644 5657 5657 5663
5329 5334 5339 5345 5350 5356 5360 5367 5371 5373 5380 5395 5410 5426 5439 5453 5466 5479 5497 5509 5512 5523 5526 5538 5547 5557 5562 5566 5574 5585 5589 5593 5597 5603 5605 5615 5631 5627 5630 5626 5644 5642 5645 5647
5329 5332 5336 5340 5345 5348 5354 5360 5364 5369 5377 5385 5397 5415 5428 5442 5458 5473 5485 5495 5498 5509 5515 5523 5533 5542 5548 5555 5565 5571 5577 5581 5586 5591 5595 5604 5618 5615 5620 5622 5622 5627 5631 5633
5325 5328 5333 5336 5340 5343 5347 5353 5359 5363 5370 5378 5388 5404 5420 5433 5445 5462 5471 5481 5494 5503 5503 5506 5516 5528 5535 5546 5554 5559 5562 5573 5578 5582 5587 5599 5598 5600 5603 5606 5610 5615 5618 5622
5322 5324 5328 5330 5334 5337 5342 5346 5350 5355 5365 5371 5380 5397 5411 5420 5433 5445 5458 5467 5482 5487 5495 5506 5509 5515 5526 5530 5542 5550 5554 5563 5560 5566 5577 5582 5586 5584 5588 5597 5599 5601 5604 5606
5321 5321 5322 5324 5327 5332 5337 5341 5346 5352 5362 5367 5377 5391 5403 5411 5422 5434 5444 5456 5470 5478 5486 5493 5498 5505 5510 5521 5528 5532 5539 5549 5553 5556 5561 5566 5573 5575 5579 5584 5585 5587 5587 5589
5319 5320 5321 5323 5325 5329 5334 5340 5347 5355 5363 5369 5379 5391 5398 5411 5420 5428 5440 5449 5459 5465 5473 5481 5488 5497 5505 5512 5516 5520 5528 5536 5539 5547 5554 5554 5561 5564 5566 5569 5569 5571 5573 5573
5321 5322 5324 5325 5329 5332 5337 5342 5349 5354 5361 5366 5376 5390 5396 5406 5413 5422 5434 5440 5451 5458 5464 5472 5476 5487 5492 5497 5503 5508 5512 5522 5531 5535 5542 5543 5548 5550 5554 5555 5556 5558 5559 5558
5325 5325 5327 5329 5333 5336 5340 5346 5351 5356 5360 5366 5376 5381 5386 5398 5408 5420 5431 5438 5442 5447 5452 5458 5470 5476 5480 5482 5491 5498 5503 5512 5518 5524 5528 5531 5533 5537 5540 5540 5542 5545 5542 5543
5327 5327 5329 5331 5334 5338 5341 5347 5350 5354 5359 5366 5373 5380 5385 5393 5402 5412 5420 5428 5439 5436 5447 5451 5458 5466 5470 5475 5481 5485 5494 5502 5508 5511 5514 5518 5520 5524 5525 5525 5528 5530 5528 5529
5330 5329 5331 5333 5335 5338 5341 5345 5350 5355 5361 5365 5371 5377 5384 5392 5399 5406 5413 5420 5428 5435 5439 5442 5448 5452 5458 5470 5472 5480 5489 5493 5495 5498 5502 5505 5508 5509 5512 5513 5515 5516 5517 5518
5331 5333 5333 5333 5334 5336 5341 5345 5349 5353 5358 5364 5370 5377 5384 5390 5396 5401 5408 5413 5419 5425 5430 5435 5441 5448 5454 5459 5464 5471 5478 5480 5484 5487 5490 5493 5495 5498 5501 5502 5502 5504 5505 5505
5329 5332 5335 5335 5335 5338 5342 5346 5349 5354 5358 5364 5370 5376 5378 5386 5391 5397 5403 5407 5413 5417 5424 5428 5433 5440 5446 5450 5455 5460 5464 5467 5469 5473 5478 5481 5484 5487 5488 5489 5490 5492 5492 5493
5330 5331 5333 5336 5339 5341 5345 5347 5352 5355 5359 5363 5367 5373 5378 5381 5385 5389 5395 5400 5405 5409 5415 5419 5424 5433 5437 5440 5445 5449 5452 5455 5459 5462 5466 5468 5472 5475 5476 5478 5479 5480 5480 5478
5331 5332 5333 5334 5336 5340 5343 5346 5350 5354 5358 5361 5364 5367 5369 5374 5380 5383 5388 5392 5396 5403 5407 5412 5418 5425 5427 5431 5436 5440 5443 5447 5450 5453 5455 5458 5461 5463 5464 5466 5466 5467 5467 5467
5332 5333 5333 5334 5335 5338 5340 5343 5346 5351 5354 5358 5361 5365 5369 5372 5374 5376 5381 5384 5389 5394 5401 5406 5412 5415 5417 5422 5426 5430 5433 5437 5440 5442 5445 5447 5449 5451 5452 5453 5455 5455 5456 5457
5332 5334 5334 5335 5335 5337 5339 5341 5344 5346 5349 5353 5356 5360 5364 5366 5370 5373 5377 5380 5383 5388 5394 5398 5403 5406 5409 5413 5417 5420 5423 5426 5428 5430 5433 5435 5437 5439 5441 5442 5444 5445 5447 5449
5331 5332 5334 5335 5337 5337 5338 5339 5341 5343 5346 5348 5351 5353 5356 5359 5363 5367 5370 5374 5377 5382 5384 5387 5393 5396 5400 5404 5407 5410 5412 5415 5417 5420 5422 5424 5426 5429 5431 5433 5435 5437 5439 5440
5331 5332 5333 5333 5334 5336 5337 5339 5340 5342 5344 5346 5346 5348 5351 5354 5356 5360 5363 5367 5370 5372 5375 5379 5383 5387 5390 5393 5397 5400 5402 5405 5407 5410 5412 5415 5417 5420 5422 5424 5426 5428 5431 5433